[[{"header":{"parameterUnit":"m.s-1","parameterCategory":1,"la1":30.2991,"la2":30.254,"lo1":-89.0895,"lo2":-89.0444,"dy":0.0017,"dx":0.0017,"nx":28,"ny":28,"refTime":"2025-11-22T09:00:00:Z","depth":0,"parameterNumber":2,"parameterNumberName":"U-component_of_WINDS"},"data":[0,0,0,0,0,0,0,0,0,0,0,0,0,0,0,0,0,0,0,0,0,0,0,0,0,0,0,0,0,0,0,0,0,0,0,0,0,0,0,0,0,0,0,0,0,0,0,0,0,0,0,0,0,0,0,0,0,0,0.5191,0.5192,0,0.5243,0.5244,0.5244,0.523,0.5229,0.5228,0.5227,0.5287,0.529,0.5292,0,0,0,0,0,0,0,0,0,0,0,0,0,0.5086,0.5088,0.5191,0.5192,0.5193,0.5243,0.5244,0.5244,0.523,0.5229,0.5228,0.5227,0.5287,0.529,0.5293,0,0,0,0,0,0,0,0,0,0,0,0,0,0.5134,0.5089,0.5191,0.5192,0.5192,0.5243,0.5244,0.5244,0.5231,0.5229,0.5228,0.5226,0.5286,0.5289,0.5293,0.5349,0,0,0.5305,0.5307,0,0,0,0,0,0,0,0,0.5132,0.5138,0.5191,0.5192,0.5192,0.5228,0.5228,0.528,0.5231,0.5216,0.5227,0.5225,0.527,0.5275,0.5288,0.5352,0.5354,0.5305,0.5308,0.5309,0.531,0,0,0,0,0,0,0,0.5128,0.5136,0.5212,0.5192,0.5193,0.5191,0.5196,0.5238,0.5252,0.5218,0.5217,0.5222,0.527,0.5284,0.5289,0.5355,0.5305,0.5309,0.5311,0.5313,0.5466,0.5467,0,0,0,0,0,0,0.5123,0.5133,0.521,0.5214,0.5157,0.5194,0.52,0.5219,0.5251,0.5254,0.5224,0.5222,0.5278,0.5285,0.5291,0.5358,0.5309,0.5313,0.5315,0.5464,0.5466,0.5468,0,0,0,0,0,0,0.5121,0.513,0.5208,0.5173,0.5183,0.5197,0.5219,0.522,0.5235,0.5255,0.5258,0.5236,0.5277,0.5286,0.5334,0.536,0.5315,0.5318,0.5462,0.5465,0.5467,0.5493,0,0,0,0,0,0,0.5118,0.513,0.515,0.5173,0.5185,0.5248,0.522,0.5223,0.5241,0.5239,0.5268,0.5271,0.5277,0.5328,0.5338,0.5365,0.5321,0.546,0.5463,0.5466,0.549,0.5496,0.5501,0,0,0,0,0,0.5115,0.5157,0.5151,0.5161,0.521,0.525,0.5257,0.526,0.5243,0.5264,0.5277,0.527,0.5355,0.5333,0.5344,0.5372,0.5458,0.5462,0.5466,0.5487,0.5495,0.5501,0,0,0,0,0,0,0.514,0.516,0.5154,0.5205,0.5225,0.5247,0.5275,0.5268,0.5296,0.5293,0.5298,0.5305,0.5354,0.5368,0.5343,0.5427,0.5404,0.5411,0.5417,0.5424,0.543,0.5426,0.5324,0,0,0,0,0,0.5151,0.5179,0.5197,0.524,0.525,0.526,0.5278,0.5278,0.5301,0.531,0.5327,0.5351,0.5383,0.5404,0.5435,0.5491,0.5497,0.5515,0.5521,0.5526,0.5532,0.5562,0.557,0.5481,0.5481,0.5481,0,0,0.5175,0.519,0.5208,0.5245,0.5261,0.5292,0.5268,0.5303,0.5326,0.5317,0.5362,0.5375,0.5402,0.5453,0.5477,0.5467,0.5557,0.5531,0.5534,0.5538,0.5567,0.5575,0.5583,0.5483,0.5483,0.5483,0,0,0.5235,0.5248,0.5285,0.5301,0.5324,0.533,0.5339,0.5361,0.5368,0.5413,0.5406,0.5435,0.549,0.5509,0.5526,0.5589,0.5584,0.5599,0.563,0.566,0.5667,0.5673,0.5696,0.5704,0.5605,0.5605,0.5605,0,0.5263,0.5307,0.5306,0.534,0.5357,0.5346,0.5384,0.54,0.5433,0.5446,0.5432,0.5499,0.5517,0.5573,0.5588,0.5601,0.5613,0.5597,0.5665,0.5672,0.5678,0.57,0.5708,0.5606,0.5606,0.5606,0.5606,0,0.5341,0.5371,0.5399,0.5428,0.5447,0.5484,0.5489,0.5509,0.5507,0.5515,0.5561,0.558,0.5614,0.5627,0.5627,0.5683,0.5675,0.5663,0.5641,0.5688,0.5709,0.5717,0.5609,0.5608,0.5608,0.5607,0,0,0.5421,0.5446,0.5456,0.5468,0.5491,0.5516,0.5551,0.5581,0.5599,0.5621,0.5652,0.5697,0.5685,0.5705,0.5706,0.5731,0.578,0.5717,0.5717,0.5728,0.5843,0.5853,0.5863,0.5776,0.5778,0.5779,0.5841,0,0.5484,0.5544,0.5542,0.5599,0.5627,0.5616,0.5646,0.5665,0.5672,0.5699,0.5708,0.574,0.5722,0.5733,0.5757,0.5769,0.5804,0.5765,0.5807,0.5808,0.5801,0.5874,0.5884,0.5942,0.5849,0.5851,0.5852,0,0.5565,0.5587,0.5645,0.5662,0.5674,0.5702,0.5728,0.5753,0.5774,0.5777,0.5797,0.5793,0.5831,0.5805,0.5857,0.583,0.5846,0.5855,0.5857,0.5863,0.5834,0.5882,0.5961,0.597,0.5865,0.5864,0.5863,0,0.5619,0.5663,0.5703,0.5714,0.5734,0.5754,0.5764,0.5782,0.5799,0.5823,0.5835,0.5863,0.588,0.5902,0.5907,0.5888,0.5959,0.5934,0.5965,0.5964,0.5982,0.5981,0.6066,0.599,0.599,0.599,0.599,0,0.569,0.5726,0.5727,0.5752,0.5792,0.579,0.5831,0.5839,0.5855,0.5882,0.5874,0.5901,0.5905,0.5932,0.5936,0.5979,0.5986,0.5991,0.5992,0.5993,0.5992,0.6005,0.6002,0.5992,0.5992,0.5992,0.5991,0,0.5758,0.5759,0.5802,0.5816,0.5821,0.585,0.5863,0.5888,0.5893,0.5927,0.5936,0.5945,0.5976,0.5982,0.6021,0.6024,0.6074,0.6071,0.6067,0.6067,0.6097,0.6095,0.6194,0.6207,0.6123,0.6123,0.6124,0,0.5803,0.5831,0.5847,0.5863,0.5873,0.59,0.5916,0.5915,0.5933,0.5956,0.5978,0.6008,0.6032,0.6084,0.6095,0.6124,0.6122,0.6155,0.6127,0.6126,0.6123,0.6122,0.6125,0.6161,0.6162,0.6163,0.6163,0,0.5885,0.5883,0.5906,0.5929,0.5948,0.5967,0.5985,0.5999,0.6,0.6021,0.6052,0.607,0.6107,0.6138,0.6166,0.6178,0.6172,0.6171,0.618,0.6182,0.6178,0.6181,0.6083,0.617,0.6169,0.6169,0.6168,0.6168,0.5944,0.5967,0.5981,0.6006,0.6018,0.6035,0.6057,0.6064,0.6088,0.6117,0.6114,0.6148,0.6167,0.6203,0.6217,0.6244,0.6234,0.6247,0.625,0.6254,0.6257,0.6172,0.6249,0.6249,0.6249,0.6249,0.6249,0,0.6025,0.6032,0.6056,0.6079,0.6099,0.6087,0.6105,0.6124,0.6152,0.6169,0.6191,0.6226,0.6255,0.6267,0.6295,0.6315,0.6312,0.6322,0.6322,0.6325,0.6264,0.6254,0.6324,0.6324,0.6324,0.6324,0.6324,0.6323,0.607,0.6108,0.6107,0.6151,0.6159,0.619,0.6201,0.6216,0.6229,0.6267,0.629,0.6296,0.6311,0.6339,0.6365,0.6368,0.638,0.6391,0.6393,0.6337,0.6329,0.6322,0.6312,0.6393,0.6393,0.6451,0.6452,0.6452]},{"header":{"parameterUnit":"m.s-1","parameterCategory":1,"la1":30.2991,"la2":30.254,"lo1":-89.0895,"lo2":-89.0444,"dy":0.0017,"dx":0.0017,"nx":28,"ny":28,"refTime":"2025-11-22T09:00:00:Z","depth":0,"parameterNumber":3,"parameterNumberName":"V-component_of_WINDS"},"data":[0,0,0,0,0,0,0,0,0,0,0,0,0,0,0,0,0,0,0,0,0,0,0,0,0,0,0,0,0,0,0,0,0,0,0,0,0,0,0,0,0,0,0,0,0,0,0,0,0,0,0,0,0,0,0,0,0,0,-0.8558,-0.8559,0,-0.8724,-0.8726,-0.8728,-0.8838,-0.8839,-0.884,-0.8841,-0.9015,-0.9019,-0.9023,0,0,0,0,0,0,0,0,0,0,0,0,0,-0.8338,-0.8342,-0.8557,-0.8559,-0.8562,-0.8724,-0.8726,-0.8728,-0.8838,-0.8839,-0.884,-0.8841,-0.9014,-0.9018,-0.9023,0,0,0,0,0,0,0,0,0,0,0,0,0,-0.8462,-0.8343,-0.8557,-0.8636,-0.8645,-0.8723,-0.8726,-0.8729,-0.8838,-0.8839,-0.884,-0.8841,-0.9012,-0.9018,-0.9024,-0.9038,0,0,-0.9042,-0.9044,0,0,0,0,0,0,0,0,-0.8455,-0.847,-0.8622,-0.8631,-0.8641,-0.8761,-0.8713,-0.8833,-0.8838,-0.8765,-0.8841,-0.8842,-0.893,-0.8943,-0.8972,-0.9046,-0.9054,-0.9042,-0.9046,-0.9048,-0.905,0,0,0,0,0,0,0,-0.8446,-0.8463,-0.8624,-0.8624,-0.8636,-0.8664,-0.8683,-0.8736,-0.8839,-0.8771,-0.878,-0.8798,-0.8935,-0.8966,-0.8977,-0.9056,-0.9042,-0.9047,-0.9051,-0.9053,-0.9152,-0.9151,0,0,0,0,0,0,-0.8425,-0.8455,-0.8618,-0.8628,-0.8548,-0.8667,-0.8688,-0.8722,-0.8839,-0.8858,-0.8796,-0.8802,-0.8955,-0.8969,-0.8983,-0.9009,-0.9048,-0.9054,-0.9057,-0.9153,-0.9152,-0.9151,0,0,0,0,0,0,-0.8419,-0.8438,-0.8612,-0.8544,-0.8569,-0.867,-0.8706,-0.8724,-0.8755,-0.8858,-0.8877,-0.8808,-0.8956,-0.8975,-0.9024,-0.9016,-0.9057,-0.9062,-0.9154,-0.9153,-0.9152,-0.9059,0,0,0,0,0,0,-0.8413,-0.8436,-0.8441,-0.8544,-0.8572,-0.8648,-0.8706,-0.8727,-0.8764,-0.8773,-0.8874,-0.8892,-0.8959,-0.9014,-0.9029,-0.9025,-0.9067,-0.9155,-0.9154,-0.9152,-0.9063,-0.9054,-0.9047,0,0,0,0,0,-0.8404,-0.8409,-0.8441,-0.846,-0.8581,-0.8647,-0.8663,-0.8739,-0.8763,-0.8771,-0.8837,-0.8889,-0.9014,-0.9018,-0.9036,-0.9034,-0.9156,-0.9154,-0.9152,-0.9067,-0.9056,-0.9047,0,0,0,0,0,0,-0.8305,-0.8424,-0.8461,-0.8498,-0.8561,-0.8666,-0.8677,-0.8725,-0.8784,-0.879,-0.8882,-0.8904,-0.8943,-0.8994,-0.8996,-0.9054,-0.9091,-0.9093,-0.902,-0.9011,-0.9003,-0.8991,-0.9072,0,0,0,0,0,-0.8287,-0.833,-0.8432,-0.8456,-0.8485,-0.8575,-0.8607,-0.8659,-0.8729,-0.8757,-0.8827,-0.8893,-0.8948,-0.8982,-0.9038,-0.907,-0.9095,-0.9077,-0.9069,-0.9062,-0.9063,-0.9085,-0.9079,-0.9144,-0.9144,-0.9144,0,0,-0.8252,-0.8322,-0.8344,-0.8437,-0.8493,-0.8536,-0.8597,-0.8641,-0.8674,-0.8764,-0.8814,-0.8867,-0.8948,-0.8989,-0.901,-0.9032,-0.905,-0.906,-0.9053,-0.9058,-0.9082,-0.9076,-0.907,-0.9143,-0.9143,-0.9143,0,0,-0.8209,-0.8266,-0.8292,-0.8345,-0.8427,-0.8487,-0.8493,-0.859,-0.8628,-0.868,-0.8748,-0.879,-0.8881,-0.8936,-0.8976,-0.8953,-0.9004,-0.8968,-0.8927,-0.8947,-0.8942,-0.8938,-0.8931,-0.8927,-0.8968,-0.8968,-0.8968,0,-0.8155,-0.8222,-0.83,-0.8339,-0.8379,-0.846,-0.8488,-0.8536,-0.8633,-0.8659,-0.8681,-0.8798,-0.8858,-0.8913,-0.8907,-0.8936,-0.8947,-0.8958,-0.8936,-0.8933,-0.8931,-0.8925,-0.8922,-0.8963,-0.8964,-0.8964,-0.8965,0,-0.8152,-0.8197,-0.8208,-0.8298,-0.8339,-0.8372,-0.8456,-0.8488,-0.8536,-0.8594,-0.8645,-0.872,-0.8792,-0.8809,-0.8857,-0.8871,-0.8882,-0.8919,-0.8958,-0.8918,-0.8914,-0.8913,-0.8957,-0.8958,-0.896,-0.8961,0,0,-0.8053,-0.8184,-0.8187,-0.8229,-0.8324,-0.8362,-0.8399,-0.8468,-0.8494,-0.8558,-0.8592,-0.8667,-0.8702,-0.8747,-0.8802,-0.8819,-0.8797,-0.8855,-0.8858,-0.8842,-0.8818,-0.8791,-0.8787,-0.883,-0.883,-0.883,-0.8812,0,-0.8026,-0.8096,-0.8166,-0.8211,-0.8255,-0.8332,-0.8364,-0.8427,-0.8481,-0.8527,-0.8588,-0.864,-0.8681,-0.8709,-0.8729,-0.8795,-0.8794,-0.8797,-0.8865,-0.8867,-0.8844,-0.8785,-0.8756,-0.8735,-0.8811,-0.8811,-0.881,0,-0.8005,-0.8063,-0.8111,-0.8203,-0.8224,-0.8251,-0.8321,-0.8363,-0.8436,-0.8474,-0.8523,-0.8581,-0.8626,-0.8658,-0.8721,-0.8722,-0.8754,-0.879,-0.8791,-0.8802,-0.8837,-0.8795,-0.873,-0.8727,-0.8809,-0.8809,-0.8809,0,-0.7929,-0.802,-0.8061,-0.8094,-0.8201,-0.8219,-0.8265,-0.8339,-0.8376,-0.8437,-0.8462,-0.8527,-0.8564,-0.8613,-0.8688,-0.8705,-0.8743,-0.8782,-0.8778,-0.8776,-0.8784,-0.8783,-0.8725,-0.8801,-0.8801,-0.8801,-0.8801,0,-0.7893,-0.792,-0.8028,-0.8054,-0.8086,-0.8167,-0.8198,-0.8251,-0.8316,-0.8354,-0.8425,-0.8459,-0.8555,-0.8601,-0.8659,-0.8703,-0.8719,-0.8752,-0.8768,-0.8747,-0.8743,-0.877,-0.8774,-0.8801,-0.8801,-0.8801,-0.8801,0,-0.7815,-0.7888,-0.7939,-0.8035,-0.806,-0.808,-0.8164,-0.8192,-0.825,-0.8297,-0.8313,-0.8404,-0.8462,-0.854,-0.8623,-0.8662,-0.8699,-0.8722,-0.8673,-0.8683,-0.8675,-0.8675,-0.8634,-0.8633,-0.8707,-0.8706,-0.8706,0,-0.7788,-0.781,-0.7909,-0.7938,-0.7981,-0.8028,-0.8066,-0.8147,-0.8183,-0.8268,-0.8286,-0.8348,-0.8403,-0.8492,-0.8567,-0.8631,-0.8657,-0.8638,-0.8668,-0.8646,-0.8659,-0.8657,-0.866,-0.8632,-0.863,-0.8629,-0.8629,0,-0.7732,-0.7767,-0.7818,-0.7881,-0.7924,-0.7978,-0.8036,-0.8056,-0.8149,-0.8187,-0.8246,-0.8288,-0.8371,-0.8433,-0.8507,-0.8556,-0.8608,-0.8618,-0.8621,-0.8601,-0.8572,-0.8589,-0.8656,-0.862,-0.862,-0.8621,-0.8622,-0.8622,-0.7681,-0.7704,-0.7777,-0.7831,-0.7882,-0.7934,-0.7965,-0.8026,-0.8076,-0.8149,-0.8193,-0.8251,-0.8324,-0.8427,-0.8474,-0.8521,-0.8542,-0.8545,-0.8546,-0.8546,-0.854,-0.8562,-0.8534,-0.8535,-0.8535,-0.8535,-0.8535,0,-0.763,-0.768,-0.7728,-0.7806,-0.7849,-0.7891,-0.7957,-0.7991,-0.804,-0.8102,-0.8154,-0.8222,-0.8282,-0.836,-0.8427,-0.8449,-0.8475,-0.8464,-0.8464,-0.8475,-0.8517,-0.8508,-0.8442,-0.8442,-0.8442,-0.8442,-0.8442,-0.8442,-0.7608,-0.7651,-0.7694,-0.7762,-0.7813,-0.7868,-0.7902,-0.7951,-0.8001,-0.8073,-0.8123,-0.8173,-0.8242,-0.8314,-0.8371,-0.8393,-0.8415,-0.8397,-0.8426,-0.8464,-0.8472,-0.848,-0.8473,-0.84,-0.84,-0.838,-0.838,-0.838]}]]